TimeCDT,TemperatureF,Dew PointF,Humidity,Sea Level PressureIn,VisibilityMPH,Wind Direction,Wind SpeedMPH,Gust SpeedMPH,PrecipitationIn,Events,Conditions,WindDirDegrees,DateUTC
12:52 AM,72.0,64.9,78,30.02,10.0,SSE,11.5,-,N/A,,Clear,150,2013-09-18 05:52:00
1:52 AM,71.1,64.9,81,30.01,10.0,SSE,12.7,-,N/A,,Clear,160,2013-09-18 06:52:00
2:52 AM,70.0,64.9,84,30.01,10.0,SSE,12.7,-,N/A,,Clear,160,2013-09-18 07:52:00
3:52 AM,70.0,64.9,84,30.01,9.0,SSE,13.8,-,N/A,,Clear,160,2013-09-18 08:52:00
4:52 AM,70.0,64.9,84,29.99,9.0,SSE,13.8,-,N/A,,Overcast,150,2013-09-18 09:52:00
5:52 AM,70.0,64.0,81,30.00,9.0,SSE,13.8,-,N/A,,Overcast,160,2013-09-18 10:52:00
6:52 AM,70.0,64.0,81,30.00,9.0,SSE,12.7,-,N/A,,Mostly Cloudy,160,2013-09-18 11:52:00
7:52 AM,71.1,64.0,78,30.01,9.0,SSE,12.7,-,N/A,,Mostly Cloudy,160,2013-09-18 12:52:00
8:52 AM,73.0,64.0,73,30.02,10.0,SSE,13.8,-,N/A,,Mostly Cloudy,160,2013-09-18 13:52:00
9:52 AM,75.9,64.9,69,30.02,10.0,SSE,11.5,-,N/A,,Scattered Clouds,160,2013-09-18 14:52:00
10:52 AM,75.9,66.0,71,30.02,10.0,SSE,11.5,-,0.00,,Overcast,160,2013-09-18 15:52:00
11:52 AM,81.0,66.9,62,30.01,10.0,South,15.0,-,N/A,,Partly Cloudy,190,2013-09-18 16:52:00
12:52 PM,81.0,66.0,60,30.00,10.0,SSW,10.4,-,0.00,,Mostly Cloudy,200,2013-09-18 17:52:00
1:27 PM,73.9,69.1,85,30.05,2.0,SW,10.4,-,0.04,Rain-Thunderstorm,Heavy Thunderstorms and Rain,230,2013-09-18 18:27:00
1:33 PM,73.0,68.0,84,30.05,0.8,Variable,3.5,-,0.17,Rain-Thunderstorm,Heavy Thunderstorms and Rain,0,2013-09-18 18:33:00
1:44 PM,72.0,68.0,87,30.04,2.0,NE,6.9,-,0.30,Rain-Thunderstorm,Light Thunderstorms and Rain,40,2013-09-18 18:44:00
1:52 PM,73.0,68.0,84,30.01,9.0,ENE,6.9,-,0.31,Rain-Thunderstorm,Light Thunderstorms and Rain,70,2013-09-18 18:52:00
2:13 PM,72.0,68.0,87,30.04,5.0,SE,8.1,-,0.06,Rain-Thunderstorm,Light Rain,130,2013-09-18 19:13:00
2:25 PM,72.0,69.1,91,30.03,10.0,ESE,6.9,-,0.06,Rain,Light Rain,110,2013-09-18 19:25:00
2:48 PM,73.4,69.8,88,30.01,9.0,SE,10.4,-,0.07,Rain-Thunderstorm,Light Rain,130,2013-09-18 19:48:00
2:52 PM,73.9,71.1,91,29.98,9.0,SE,10.4,-,0.07,Thunderstorm,Mostly Cloudy,130,2013-09-18 19:52:00
3:03 PM,75.0,71.1,87,30.00,8.0,SE,10.4,-,N/A,,Partly Cloudy,140,2013-09-18 20:03:00
3:52 PM,77.0,71.1,82,29.96,9.0,SE,16.1,-,N/A,,Mostly Cloudy,130,2013-09-18 20:52:00
4:52 PM,75.9,70.0,82,29.96,10.0,SE,10.4,-,0.00,Rain,Light Rain,130,2013-09-18 21:52:00
5:52 PM,78.1,70.0,76,29.94,10.0,SE,13.8,-,0.00,,Partly Cloudy,140,2013-09-18 22:52:00
6:52 PM,77.0,70.0,79,29.93,10.0,SE,12.7,-,N/A,,Clear,140,2013-09-18 23:52:00
7:52 PM,75.9,70.0,82,29.93,10.0,SSE,11.5,-,N/A,,Clear,150,2013-09-19 00:52:00
8:52 PM,75.0,69.1,82,29.94,10.0,SSE,9.2,-,N/A,,Clear,150,2013-09-19 01:52:00
9:52 PM,75.0,69.1,82,29.96,10.0,SSE,10.4,-,N/A,,Clear,150,2013-09-19 02:52:00
10:52 PM,73.9,70.0,87,29.95,9.0,SSE,10.4,-,N/A,,Clear,150,2013-09-19 03:52:00
11:52 PM,73.9,69.1,85,29.94,9.0,SSE,11.5,-,N/A,,Clear,160,2013-09-19 04:52:00